This is the latest recevied weather packets stored in our database for station/object LRSV. If no packets are shown the sender has not sent any weather packets the latest 10 day(s).
| Time | Temp. | Humidity | Pressure | Rain* | Wind** | Luminosity | Snow |
|---|---|---|---|---|---|---|---|
| 1777405756 | 7.78° C | 37% | 1020 hPa | - | - | - | - |
| 1777404802 | 7.78° C | 37% | 1020 hPa | - | - | - | - |
| 1777394901 | 11.11° C | 35% | 1018 hPa | - | - | - | - |
| 1777389500 | 12.22° C | 35% | 1018 hPa | - | - | - | - |
| 1777385900 | 12.78° C | 36% | 1018 hPa | - | - | - | - |
| 1777383202 | 12.78° C | 36% | 1018 hPa | - | - | - | - |
| 1777377800 | 12.78° C | 33% | 1018 hPa | - | - | - | - |
| 1777376977 | 12.78° C | 33% | 1018 hPa | - | - | - | - |
| 1777372400 | 12.22° C | 38% | 1019 hPa | - | - | - | - |
| 1777371523 | 12.22° C | 38% | 1019 hPa | - | - | - | - |
| 1777368808 | 11.11° C | 41% | 1019 hPa | - | - | - | - |
| 1777367901 | 11.11° C | 41% | 1019 hPa | - | - | - | - |
| 1777367000 | 11.11° C | 41% | 1019 hPa | - | - | - | - |
| 1777365200 | 11.11° C | 38% | 1019 hPa | - | - | - | - |
| 1777364300 | 11.11° C | 35% | 1019 hPa | - | - | - | - |
| 1777363401 | 11.11° C | 35% | 1019 hPa | - | - | - | - |
| 1777362500 | 11.11° C | 38% | 1019 hPa | - | - | - | - |
| 1777361601 | 11.11° C | 38% | 1019 hPa | - | - | - | - |
| 1777360700 | 10° C | 40% | 1019 hPa | - | - | - | - |
| 1777359800 | 10° C | 40% | 1019 hPa | - | - | - | - |
| 1777358023 | 10° C | 35% | 1019 hPa | - | - | - | - |
| 1777357101 | 10° C | 35% | 1019 hPa | - | - | - | - |
| 1777356200 | 10° C | 35% | 1019 hPa | - | - | - | - |
| 1777355326 | 8.89° C | 34% | 1019 hPa | - | - | - | - |
| 1777354400 | 8.89° C | 34% | 1019 hPa | - | - | - | - |
* Rain since midnight (hover to see other rain measurements)
** Current wind speed in m/s (hover to see current wind gust speed)